Regional Weather Roundup
Issued by NWS

Home | Current Version | Previous Version | Text Only | Print | Product List | Glossary On
Versions: 1 2 3 4 5 6 7 8 9 10 11 12 13 14 15 16 17 18 19 20 21 22 23 24 25 26 27 28 29
000
ASUS44 KLIX 171313
RWRLA
LOUISIANA WEATHER ROUNDUP
NATIONAL WEATHER SERVICE NEW ORLEANS LA
800 AM CDT TUE OCT 17 2017

NOTE: "FAIR" INDICATES FEW OR NO CLOUDS BELOW 12,000 FEET WITH NO
      SIGNIFICANT WEATHER AND/OR OBSTRUCTIONS TO VISIBILITY.
      SKY/WX - SKY CONDITION AND SIGNIFICANT WEATHER.
      TMP - AIR TEMPERATURE.    DP   - DEWPOINT TEMPERATURE.
      RH  - RELATIVE HUMIDITY.  PRES - PRESSURE.
      HX  - HEAT INDEX.         WCI  - WIND CHILL INDEX.

*  THESE STATIONS ARE NOT NWS OR FAA STATIONS AND ARE NOT UNDER
   NWS QUALITY CONTROL.

LAZ040-048-061>063-065-066-069-171400-
SOUTHEAST LOUISIANA

CITY           SKY/WX    TMP DP  RH WIND       PRES   REMARKS
N.O. INTL ARPT MOSUNNY   61  52  72 NE13      30.19R
N.O. LAKEFRONT SUNNY     61  52  72 NE17G28   30.19R
N.O. DOWNTOWN* FAIR      58  48  69 N9G16     30.19R
RESERVE*       FAIR      59  49  69 NE9       30.20R
SLIDELL        SUNNY     51  48  89 N6        30.19R
BATON ROUGE    CLEAR     50  46  86 N6        30.22R
BOOTHVILLE     SUNNY     69  60  73 NE10      30.14R
BELLE CHASSE   NOT AVBL
BOGALUSA*      FAIR      52  47  84 N5        30.23R
GALLIANO*      SUNNY     57  52  81 N9        30.16R
NEW ROADS*     FAIR      50  46  86 N6        30.24R
GONZALES*      FAIR      52  46  82 N3        30.20S
HAMMOND*       SUNNY     52  45  76 N6        30.21S
HOUMA*         SUNNY     57  54  88 N5        30.18R
PORT FOURCHON* SUNNY     66  59  77 NE13      30.15R

$$

LAZ041-044-053-054-171400-
SOUTHWEST LOUISIANA

CITY           SKY/WX    TMP DP  RH WIND       PRES   REMARKS
LAKE CHARLES   CLEAR     54  45  71 N12       30.24R
LAFAYETTE      CLEAR     51  48  89 N7        30.23R
PATTERSON      NOT AVBL
SALT POINT       N/A     55  50  83 VRB5      30.19R
NEW IBERIA     CLEAR     51  45  79 N8        30.23R
CHENAULT AIRPK CLEAR     52  45  76 N9        30.25R

$$

LAZ027-028-171400-
CENTRAL LOUISIANA

CITY           SKY/WX    TMP DP  RH WIND       PRES   REMARKS
FORT POLK      CLEAR     50  43  77 NE5       30.25S
ALEXANDRIA INT CLEAR     45  42  89 CALM      30.26R
ALEXANDRIA     CLEAR     48  44  86 VRB5      30.27R

$$

LAZ001-002-171400-
NORTHWEST LOUISIANA

CITY           SKY/WX    TMP DP  RH WIND       PRES   REMARKS
SHREVEPORT     CLEAR     50  42  74 E6        30.29R
BARKSDALE AFB  CLEAR     45  40  82 CALM      30.29S
DTN SHREVEPORT CLEAR     46  40  79 NE6       30.30S

$$

LAZ014-016-171400-
NORTHEAST LOUISIANA

CITY           SKY/WX    TMP DP  RH WIND       PRES   REMARKS
MONROE         CLEAR     48  44  86 N5        30.31R
TALLULAH       CLEAR     49  46  90 NE7       30.28S

$$





USA.gov is the U.S. government's official web portal to all federal, state and local government web resources and services.